Main page
METAR-TAF:

METAR-TAF

Airports :

Monticello Regional Airport

Monticello, Iowa, United States

latitude: 42-14N, longitude: 091-10W, elevation: 850 ft

Current weather observation

The report was made 38 minutes ago, at 13:35 UTC
Calm wind
Temperature 77°F
Humidity 89%
Pressure 30.18 in. Hg
Visibility: 10 miles
Broken clouds at a height of 9000 ft

METAR: KMXO 211335Z AUTO 00000KT 10SM BKN090 25/23 A3018 RMK AO2

Time: 09:13 (14:13 UTC)


TAF: missing

Weather observations and forecasts of more than 4000 airports (METAR and TAF reports).

The available stations are represented by yellow and red dots on the map.

Hover mouse over dot to see the name of the station.

Then click to see weather observations and forecasts.

To change the map : click on the green buttons with a black cross to zoom in, on the green button with a dash to zoom out, or on the green arrows for adjacent maps.


METAR-TAF: